CCA4328 ZUUU-ZGGG

Flight info

Callsign CCA4328
Flight time N/A
Altitude 35100
Route IDBOR9W IDBOR B330 KWE W181 DUDIT A599 GYA GYA9
Aircraft A321/M-SDE3FGHIRWY/LB1

Departure

Time 2026-05-07 12:33
Airport Chengdu Shuangliu International Airport (ZUUU)

Arrival

Time N/A
Airport Guangzhou Baiyun International Airport (ZGGG)
Time Latitude Longitude Altitude Speed Heading
2026-05-07 11:34 30.56850 103.95209 1647 ft 0 kts 24°
2026-05-07 12:22 30.56833 103.95201 1655 ft 4 kts 20°
2026-05-07 12:22 30.56808 103.95191 1647 ft 4 kts 13°
2026-05-07 12:22 30.56781 103.95186 1647 ft 4 kts
2026-05-07 12:22 30.56766 103.95187 1647 ft 1 kts 356°
2026-05-07 12:23 30.56765 103.95187 1647 ft 0 kts 356°
2026-05-07 12:28 30.56766 103.95186 1647 ft 1 kts 346°
2026-05-07 12:28 30.56791 103.95142 1647 ft 9 kts 297°
2026-05-07 12:28 30.56817 103.95077 1647 ft 8 kts 291°
2026-05-07 12:28 30.56843 103.94995 1647 ft 13 kts 290°
2026-05-07 12:29 30.56876 103.94905 1647 ft 11 kts 294°
2026-05-07 12:29 30.56904 103.94824 1647 ft 10 kts 291°
2026-05-07 12:29 30.56928 103.94751 1647 ft 10 kts 292°
2026-05-07 12:29 30.56964 103.94651 1647 ft 14 kts 287°
2026-05-07 12:30 30.56908 103.94584 1647 ft 16 kts 198°
2026-05-07 12:30 30.56799 103.94536 1647 ft 16 kts 205°
2026-05-07 12:30 30.56677 103.94475 1647 ft 21 kts 202°
2026-05-07 12:30 30.56544 103.94415 1647 ft 20 kts 201°
2026-05-07 12:31 30.56420 103.94356 1647 ft 19 kts 203°
2026-05-07 12:31 30.56305 103.94300 1647 ft 16 kts 203°
2026-05-07 12:31 30.56285 103.94199 1647 ft 13 kts 290°
2026-05-07 12:31 30.56318 103.94102 1647 ft 12 kts 293°
2026-05-07 12:32 30.56364 103.94027 1647 ft 11 kts 328°
2026-05-07 12:32 30.56425 103.94041 1648 ft 8 kts 23°
2026-05-07 12:32 30.56527 103.94088 1649 ft 40 kts 22°
2026-05-07 12:32 30.56995 103.94304 1646 ft 103 kts 21°
2026-05-07 12:33 30.58906 103.95187 1750 ft 177 kts 21°
2026-05-07 12:33 30.60020 103.95683 2415 ft 168 kts 21°
2026-05-07 12:33 30.61109 103.96180 2977 ft 170 kts 25°
2026-05-07 12:34 30.62240 103.96716 3164 ft 187 kts 25°
2026-05-07 12:34 30.63523 103.97324 3316 ft 205 kts 24°
2026-05-07 12:34 30.64905 103.97976 3414 ft 225 kts 24°
2026-05-07 12:34 30.66436 103.98695 3585 ft 249 kts 24°
2026-05-07 12:35 30.68051 103.99514 4106 ft 256 kts 33°
2026-05-07 12:35 30.69323 104.00920 4758 ft 258 kts 54°
2026-05-07 12:35 30.70285 104.02698 5447 ft 262 kts 61°
2026-05-07 12:35 30.71144 104.04606 6147 ft 265 kts 63°
2026-05-07 12:36 30.71977 104.06501 6828 ft 268 kts 62°
2026-05-07 12:36 30.72847 104.08420 7498 ft 270 kts 61°
2026-05-07 12:36 30.73760 104.10348 8169 ft 273 kts 60°
2026-05-07 12:36 30.74702 104.12270 8859 ft 274 kts 59°
2026-05-07 12:37 30.75637 104.14207 9594 ft 276 kts 64°
2026-05-07 12:37 30.75986 104.16403 10199 ft 284 kts 92°
2026-05-07 12:37 30.75393 104.18612 10755 ft 294 kts 120°
2026-05-07 12:37 30.73955 104.20325 11312 ft 303 kts 148°
2026-05-07 12:38 30.71950 104.21078 11876 ft 308 kts 178°
2026-05-07 12:38 30.69830 104.20680 12431 ft 311 kts 197°
2026-05-07 12:38 30.67753 104.19937 13074 ft 312 kts 198°
2026-05-07 12:38 30.65686 104.19184 13770 ft 312 kts 199°
2026-05-07 12:39 30.63615 104.18430 14383 ft 312 kts 199°
2026-05-07 12:39 30.61533 104.17677 14941 ft 313 kts 199°
2026-05-07 12:39 30.59449 104.16928 15481 ft 315 kts 199°
2026-05-07 12:39 30.57350 104.16175 16021 ft 316 kts 200°
2026-05-07 12:40 30.55239 104.15421 16545 ft 318 kts 200°
2026-05-07 12:40 30.53122 104.14667 17071 ft 319 kts 201°
2026-05-07 12:40 30.50996 104.13909 17576 ft 321 kts 201°
2026-05-07 12:40 30.48857 104.13147 18074 ft 322 kts 202°
2026-05-07 12:41 30.46714 104.12368 18531 ft 323 kts 204°
2026-05-07 12:41 30.44562 104.11460 18654 ft 335 kts 206°
2026-05-07 12:41 30.42364 104.10433 18768 ft 346 kts 207°
2026-05-07 12:41 30.40111 104.09340 18879 ft 357 kts 207°
2026-05-07 12:42 30.37792 104.08210 18994 ft 367 kts 207°
2026-05-07 12:42 30.35404 104.07057 19132 ft 376 kts 207°
2026-05-07 12:42 30.32969 104.05901 19386 ft 380 kts 206°
2026-05-07 12:42 30.30421 104.04976 19664 ft 389 kts 195°
2026-05-07 12:43 30.27694 104.04787 19950 ft 399 kts 180°
2026-05-07 12:43 30.24939 104.05402 20227 ft 410 kts 166°
2026-05-07 12:43 30.22344 104.06841 20491 ft 420 kts 150°
2026-05-07 12:43 30.19994 104.08893 20759 ft 425 kts 146°
2026-05-07 12:44 30.17659 104.10999 21057 ft 426 kts 146°
2026-05-07 12:44 30.15311 104.13109 21331 ft 428 kts 146°
2026-05-07 12:44 30.12957 104.15218 21604 ft 429 kts 146°
2026-05-07 12:44 30.10621 104.17308 21868 ft 431 kts 146°
2026-05-07 12:45 30.08245 104.19435 22130 ft 433 kts 146°
2026-05-07 12:45 30.05860 104.21572 22388 ft 435 kts 146°
2026-05-07 12:45 30.03467 104.23716 22658 ft 437 kts 146°
2026-05-07 12:45 30.01066 104.25867 22923 ft 438 kts 146°
2026-05-07 12:46 29.98649 104.28028 23185 ft 440 kts 146°
2026-05-07 12:46 29.96218 104.30196 23453 ft 442 kts 146°
2026-05-07 12:46 29.93776 104.32368 23697 ft 444 kts 146°
2026-05-07 12:46 29.91290 104.34579 23928 ft 446 kts 146°
2026-05-07 12:47 29.88823 104.36773 24146 ft 447 kts 147°
2026-05-07 12:47 29.86369 104.38953 24401 ft 448 kts 147°
2026-05-07 12:47 29.83893 104.41152 24649 ft 449 kts 147°
2026-05-07 12:47 29.81417 104.43351 24887 ft 451 kts 147°
2026-05-07 12:48 29.78930 104.45564 25134 ft 452 kts 147°
2026-05-07 12:48 29.76441 104.47779 25371 ft 454 kts 147°
2026-05-07 12:48 29.73940 104.50003 25604 ft 455 kts 147°
2026-05-07 12:48 29.71461 104.52205 25834 ft 457 kts 147°
2026-05-07 12:49 29.68938 104.54443 26071 ft 459 kts 147°
2026-05-07 12:49 29.66403 104.56686 26297 ft 460 kts 147°
2026-05-07 12:49 29.63860 104.58931 26519 ft 462 kts 147°
2026-05-07 12:49 29.61308 104.61183 26753 ft 463 kts 147°
2026-05-07 12:50 29.58748 104.63444 26982 ft 465 kts 148°
2026-05-07 12:50 29.56174 104.65716 27139 ft 468 kts 148°
2026-05-07 12:50 29.53586 104.67997 27324 ft 470 kts 148°
2026-05-07 12:50 29.50984 104.70289 27542 ft 472 kts 148°
2026-05-07 12:51 29.48375 104.72590 27763 ft 474 kts 148°
2026-05-07 12:51 29.45759 104.74895 27985 ft 475 kts 148°
2026-05-07 12:51 29.43131 104.77210 28208 ft 477 kts 148°
2026-05-07 12:51 29.40500 104.79523 28432 ft 478 kts 148°
2026-05-07 12:52 29.37854 104.81847 28636 ft 480 kts 148°
2026-05-07 12:52 29.35202 104.84167 28847 ft 480 kts 150°
2026-05-07 12:52 29.32396 104.86200 29036 ft 474 kts 159°
2026-05-07 12:52 29.29416 104.87781 29232 ft 472 kts 163°
2026-05-07 12:53 29.26403 104.89289 29398 ft 473 kts 163°
2026-05-07 12:53 29.23382 104.90803 29570 ft 475 kts 163°
2026-05-07 12:53 29.20348 104.92328 29754 ft 477 kts 163°
2026-05-07 12:53 29.17311 104.93858 29933 ft 478 kts 163°
2026-05-07 12:54 29.14262 104.95396 30091 ft 480 kts 163°
2026-05-07 12:54 29.11207 104.96939 30241 ft 481 kts 163°
2026-05-07 12:54 29.08142 104.98488 30375 ft 482 kts 163°
2026-05-07 12:54 29.05077 105.00039 30505 ft 483 kts 163°
2026-05-07 12:55 29.01999 105.01595 30634 ft 484 kts 163°
2026-05-07 12:55 28.98878 105.03174 30805 ft 484 kts 163°
2026-05-07 12:55 28.95841 105.04708 30964 ft 484 kts 163°
2026-05-07 12:55 28.92724 105.06280 31147 ft 484 kts 163°
2026-05-07 12:56 28.89689 105.07807 31314 ft 483 kts 163°
2026-05-07 12:56 28.86610 105.09350 31492 ft 483 kts 163°
2026-05-07 12:56 28.83535 105.10886 31669 ft 483 kts 164°
2026-05-07 12:56 28.80458 105.12422 31853 ft 483 kts 164°
2026-05-07 12:57 28.77385 105.13968 32038 ft 483 kts 163°
2026-05-07 12:57 28.74339 105.15627 32216 ft 485 kts 161°
2026-05-07 12:57 28.71337 105.17404 32396 ft 487 kts 159°
2026-05-07 12:57 28.68366 105.19256 32581 ft 488 kts 158°
2026-05-07 12:58 28.65403 105.21139 32739 ft 487 kts 158°
2026-05-07 12:58 28.62442 105.23014 32943 ft 486 kts 158°
2026-05-07 12:58 28.59478 105.24860 33135 ft 485 kts 159°
2026-05-07 12:58 28.56506 105.26680 33319 ft 485 kts 159°
2026-05-07 12:59 28.53492 105.28501 33500 ft 484 kts 160°
2026-05-07 12:59 28.50549 105.30263 33651 ft 484 kts 160°
2026-05-07 12:59 28.47532 105.32063 33792 ft 484 kts 160°
2026-05-07 12:59 28.44543 105.33848 33978 ft 485 kts 160°
2026-05-07 13:00 28.41565 105.35631 34128 ft 484 kts 160°
2026-05-07 13:00 28.38586 105.37420 34283 ft 484 kts 160°
2026-05-07 13:00 28.35611 105.39210 34406 ft 484 kts 159°
2026-05-07 13:00 28.32633 105.41003 34577 ft 483 kts 159°
2026-05-07 13:01 28.29668 105.42791 34733 ft 483 kts 159°
2026-05-07 13:01 28.26741 105.44553 34884 ft 483 kts 159°
2026-05-07 13:01 28.23739 105.46355 35057 ft 482 kts 159°
2026-05-07 13:01 28.20771 105.48133 35176 ft 482 kts 160°
2026-05-07 13:02 28.15871 105.51066 35208 ft 477 kts 160°
2026-05-07 13:02 28.10003 105.54567 35213 ft 476 kts 160°
2026-05-07 13:03 28.03996 105.57448 35201 ft 461 kts 173°
2026-05-07 13:03 27.97737 105.58602 35220 ft 455 kts 180°
2026-05-07 13:04 27.91467 105.59572 35207 ft 456 kts 180°
2026-05-07 13:04 27.85172 105.60568 35222 ft 457 kts 180°
2026-05-07 13:05 27.78925 105.62166 35229 ft 471 kts 165°
2026-05-07 13:05 27.73032 105.65583 35218 ft 479 kts 158°
2026-05-07 13:06 27.67166 105.69154 35221 ft 478 kts 160°
2026-05-07 13:06 27.61215 105.72468 35232 ft 476 kts 162°
2026-05-07 13:07 27.55208 105.75612 35235 ft 476 kts 162°
2026-05-07 13:07 27.49205 105.78782 35243 ft 477 kts 162°
2026-05-07 13:08 27.43210 105.82013 35247 ft 478 kts 161°
2026-05-07 13:08 27.37217 105.85258 35260 ft 478 kts 161°
2026-05-07 13:09 27.31221 105.88497 35259 ft 478 kts 162°
2026-05-07 13:09 27.25217 105.91721 35266 ft 478 kts 161°
2026-05-07 13:10 27.19215 105.94940 35264 ft 478 kts 161°
2026-05-07 13:10 27.13214 105.98161 35251 ft 478 kts 161°
2026-05-07 13:11 27.07197 106.01489 35253 ft 483 kts 155°
2026-05-07 13:11 27.01989 106.06327 35250 ft 499 kts 135°
2026-05-07 13:12 26.97758 106.12560 35242 ft 503 kts 131°
2026-05-07 13:12 26.93534 106.18820 35259 ft 503 kts 132°
2026-05-07 13:13 26.89298 106.25068 35249 ft 504 kts 132°
2026-05-07 13:13 26.85072 106.31322 35252 ft 503 kts 131°
2026-05-07 13:14 26.80848 106.37568 35232 ft 503 kts 131°
2026-05-07 13:14 26.76596 106.43855 35240 ft 502 kts 131°
2026-05-07 13:15 26.72377 106.50075 35253 ft 502 kts 131°
2026-05-07 13:15 26.68152 106.56284 35264 ft 501 kts 131°
2026-05-07 13:16 26.63938 106.62487 35274 ft 501 kts 131°
2026-05-07 13:16 26.59716 106.68689 35280 ft 501 kts 131°
2026-05-07 13:17 26.55495 106.74877 35279 ft 500 kts 131°
2026-05-07 13:17 26.51102 106.80861 35279 ft 494 kts 140°
2026-05-07 13:18 26.46204 106.86234 35277 ft 494 kts 140°
2026-05-07 13:18 26.41323 106.91600 35255 ft 492 kts 140°
2026-05-07 13:19 26.36455 106.96945 35264 ft 490 kts 140°
2026-05-07 13:19 26.31602 107.02263 35247 ft 489 kts 140°
2026-05-07 13:20 26.26758 107.07577 35248 ft 488 kts 140°
2026-05-07 13:20 26.21917 107.12890 35243 ft 488 kts 140°
2026-05-07 13:21 26.17084 107.18206 35229 ft 489 kts 140°
2026-05-07 13:21 26.12248 107.23516 35229 ft 489 kts 140°
2026-05-07 13:22 26.07404 107.28821 35227 ft 488 kts 140°
2026-05-07 13:22 26.02567 107.34101 35215 ft 487 kts 140°
2026-05-07 13:23 25.97740 107.39372 35214 ft 486 kts 140°
2026-05-07 13:23 25.92921 107.44634 35210 ft 486 kts 139°
2026-05-07 13:24 25.88095 107.49898 35193 ft 486 kts 140°
2026-05-07 13:24 25.83273 107.55142 35195 ft 485 kts 140°
2026-05-07 13:25 25.78456 107.60374 35191 ft 485 kts 140°
2026-05-07 13:25 25.73629 107.65607 35164 ft 485 kts 140°
2026-05-07 13:26 25.68806 107.70833 35173 ft 485 kts 139°
2026-05-07 13:26 25.64004 107.76094 35171 ft 486 kts 139°
2026-05-07 13:27 25.59205 107.81372 35167 ft 486 kts 139°
2026-05-07 13:27 25.54395 107.86642 35165 ft 486 kts 139°
2026-05-07 13:28 25.49554 107.91844 35145 ft 483 kts 144°
2026-05-07 13:28 25.43923 107.95645 35142 ft 469 kts 164°
2026-05-07 13:29 25.37688 107.97292 35126 ft 456 kts 179°
2026-05-07 13:29 25.31367 107.98043 35109 ft 457 kts 179°
2026-05-07 13:30 25.25041 107.98818 35097 ft 457 kts 179°
2026-05-07 13:30 25.18703 107.99598 35106 ft 458 kts 179°
2026-05-07 13:31 25.12322 108.00382 35083 ft 458 kts 179°
2026-05-07 13:31 25.05977 108.01154 35096 ft 459 kts 179°
2026-05-07 13:32 24.99635 108.01921 35090 ft 459 kts 179°
2026-05-07 13:32 24.93288 108.02695 35089 ft 459 kts 179°
2026-05-07 13:33 24.86942 108.03474 35084 ft 458 kts 179°
2026-05-07 13:33 24.80609 108.04243 35077 ft 458 kts 179°
2026-05-07 13:34 24.71112 108.05389 35073 ft 457 kts 179°
2026-05-07 13:35 24.64789 108.06154 35069 ft 457 kts 179°
2026-05-07 13:35 24.58473 108.06914 35068 ft 457 kts 179°
2026-05-07 13:36 24.52155 108.07675 35037 ft 456 kts 179°
2026-05-07 13:36 24.45848 108.08445 35050 ft 456 kts 179°
2026-05-07 13:37 24.39548 108.09215 35040 ft 456 kts 179°
2026-05-07 13:37 24.33240 108.09973 35053 ft 456 kts 179°
2026-05-07 13:38 24.26928 108.10735 35033 ft 456 kts 179°
2026-05-07 13:38 24.20625 108.11506 35050 ft 456 kts 179°
2026-05-07 13:39 24.15340 108.12154 35051 ft 456 kts 179°
2026-05-07 13:39 24.09031 108.12916 35051 ft 456 kts 179°
2026-05-07 13:40 24.02723 108.13677 35052 ft 456 kts 179°
2026-05-07 13:40 23.96416 108.14440 35051 ft 456 kts 179°
2026-05-07 13:41 23.90126 108.15391 35036 ft 462 kts 168°
2026-05-07 13:41 23.87158 108.16805 35037 ft 471 kts 152°
2026-05-07 13:41 23.84614 108.19085 35037 ft 479 kts 134°
2026-05-07 13:41 23.82721 108.22102 35033 ft 485 kts 117°
2026-05-07 13:42 23.81663 108.25593 35025 ft 488 kts 99°
2026-05-07 13:42 23.81143 108.32983 35015 ft 490 kts 94°
2026-05-07 13:43 23.80729 108.40428 35016 ft 491 kts 94°
2026-05-07 13:43 23.80309 108.47878 35019 ft 492 kts 94°
2026-05-07 13:44 23.79884 108.55337 35030 ft 492 kts 94°
2026-05-07 13:44 23.79448 108.62801 35030 ft 493 kts 94°
2026-05-07 13:45 23.79009 108.70269 35037 ft 492 kts 94°
2026-05-07 13:45 23.78565 108.77730 35035 ft 492 kts 94°
2026-05-07 13:46 23.78116 108.85185 35030 ft 492 kts 94°
2026-05-07 13:46 23.77673 108.92638 35031 ft 492 kts 94°
2026-05-07 13:47 23.77234 109.00083 35027 ft 491 kts 94°
2026-05-07 13:47 23.76780 109.07524 35027 ft 491 kts 94°
2026-05-07 13:48 23.76234 109.14952 35023 ft 491 kts 99°
2026-05-07 13:48 23.74807 109.22173 35024 ft 490 kts 103°
2026-05-07 13:49 23.73355 109.29431 35026 ft 489 kts 103°
2026-05-07 13:49 23.71902 109.36685 35022 ft 489 kts 103°
2026-05-07 13:50 23.70433 109.43936 35020 ft 489 kts 103°
2026-05-07 13:50 23.68967 109.51183 35022 ft 489 kts 103°
2026-05-07 13:51 23.67494 109.58430 35030 ft 489 kts 103°
2026-05-07 13:51 23.66017 109.65664 35030 ft 489 kts 103°
2026-05-07 13:52 23.64521 109.72900 35041 ft 489 kts 103°
2026-05-07 13:52 23.63028 109.80130 35047 ft 489 kts 103°
2026-05-07 13:53 23.61524 109.87364 35045 ft 489 kts 103°
2026-05-07 13:53 23.60015 109.94588 35055 ft 489 kts 103°
2026-05-07 13:54 23.58513 110.01816 35054 ft 489 kts 103°
2026-05-07 13:54 23.57009 110.09044 35057 ft 489 kts 103°
2026-05-07 13:55 23.55497 110.16271 35063 ft 489 kts 103°
2026-05-07 13:55 23.53985 110.23497 35064 ft 489 kts 103°
2026-05-07 13:56 23.52478 110.30725 35062 ft 489 kts 103°
2026-05-07 13:56 23.50956 110.37943 35062 ft 489 kts 103°
2026-05-07 13:57 23.49476 110.45172 35060 ft 489 kts 102°
2026-05-07 13:57 23.48021 110.52408 35060 ft 489 kts 102°
2026-05-07 13:58 23.46556 110.59640 35054 ft 489 kts 102°
2026-05-07 13:58 23.45066 110.66877 35061 ft 490 kts 103°
2026-05-07 13:59 23.43569 110.74113 35068 ft 490 kts 103°
2026-05-07 13:59 23.42050 110.81344 35065 ft 490 kts 103°
2026-05-07 14:00 23.40520 110.88565 35061 ft 490 kts 103°
2026-05-07 14:00 23.38990 110.95792 35063 ft 490 kts 103°
2026-05-07 14:01 23.37461 111.02975 35064 ft 490 kts 103°
2026-05-07 14:01 23.35907 111.10252 35065 ft 490 kts 103°
2026-05-07 14:02 23.34395 111.17428 35073 ft 490 kts 102°
2026-05-07 14:02 23.32928 111.24659 35073 ft 489 kts 102°
2026-05-07 14:03 23.31476 111.31879 35077 ft 488 kts 102°
2026-05-07 14:03 23.30006 111.39078 35076 ft 487 kts 102°
2026-05-07 14:04 23.28517 111.46265 35071 ft 487 kts 102°
2026-05-07 14:04 23.27029 111.53452 35069 ft 487 kts 102°
2026-05-07 14:05 23.25529 111.60625 35047 ft 488 kts 103°
2026-05-07 14:05 23.24766 111.64220 34813 ft 487 kts 103°
2026-05-07 14:05 23.23998 111.67816 34323 ft 488 kts 103°
2026-05-07 14:05 23.23232 111.71403 33761 ft 488 kts 102°
2026-05-07 14:06 23.22464 111.75005 33155 ft 489 kts 102°
2026-05-07 14:06 23.21698 111.78606 32559 ft 489 kts 102°
2026-05-07 14:06 23.20934 111.82196 31970 ft 486 kts 102°
2026-05-07 14:06 23.20178 111.85768 31407 ft 483 kts 102°
2026-05-07 14:07 23.19438 111.89317 30846 ft 480 kts 102°
2026-05-07 14:07 23.18709 111.92852 30302 ft 478 kts 102°
2026-05-07 14:07 23.17986 111.96362 29716 ft 475 kts 102°
2026-05-07 14:07 23.17264 111.99849 29091 ft 472 kts 102°
2026-05-07 14:08 23.16543 112.03316 28471 ft 469 kts 102°
2026-05-07 14:08 23.15825 112.06755 27858 ft 465 kts 102°
2026-05-07 14:08 23.15108 112.10172 27276 ft 462 kts 102°
2026-05-07 14:08 23.14393 112.13566 26691 ft 459 kts 102°
2026-05-07 14:09 23.13686 112.16935 26124 ft 456 kts 102°
2026-05-07 14:09 23.12989 112.20279 25562 ft 452 kts 102°
2026-05-07 14:09 23.12300 112.23591 25015 ft 448 kts 102°
2026-05-07 14:09 23.11612 112.26883 24480 ft 444 kts 102°
2026-05-07 14:10 23.10927 112.30132 23954 ft 440 kts 102°
2026-05-07 14:10 23.10246 112.33349 23417 ft 435 kts 102°
2026-05-07 14:10 23.09571 112.36533 22799 ft 430 kts 102°
2026-05-07 14:10 23.08912 112.39636 22206 ft 425 kts 102°
2026-05-07 14:11 23.08252 112.42750 21589 ft 421 kts 102°
2026-05-07 14:11 23.07596 112.45843 20992 ft 418 kts 102°
2026-05-07 14:11 23.07070 112.48917 20532 ft 411 kts 94°
2026-05-07 14:11 23.06991 112.51988 20061 ft 405 kts 89°
2026-05-07 14:12 23.06997 112.55023 19594 ft 400 kts 89°
2026-05-07 14:12 23.07000 112.58029 19132 ft 396 kts 89°
2026-05-07 14:12 23.07001 112.60999 18674 ft 392 kts 89°
2026-05-07 14:12 23.07001 112.63943 18220 ft 388 kts 89°
2026-05-07 14:13 23.06997 112.66848 17730 ft 384 kts 89°
2026-05-07 14:13 23.06989 112.69731 17295 ft 378 kts 89°
2026-05-07 14:13 23.06981 112.72567 16861 ft 374 kts 89°
2026-05-07 14:13 23.06970 112.75372 16426 ft 369 kts 89°
2026-05-07 14:14 23.06951 112.78145 15993 ft 365 kts 90°
2026-05-07 14:14 23.06929 112.80893 15566 ft 362 kts 90°
2026-05-07 14:14 23.06903 112.83612 15147 ft 359 kts 90°
2026-05-07 14:14 23.06877 112.86309 14727 ft 356 kts 90°
2026-05-07 14:15 23.06852 112.88983 14307 ft 353 kts 90°
2026-05-07 14:15 23.06829 112.91637 13888 ft 350 kts 90°
2026-05-07 14:15 23.06807 112.94269 13446 ft 348 kts 90°
2026-05-07 14:15 23.06784 112.96879 13020 ft 344 kts 90°
2026-05-07 14:16 23.06760 112.99460 12600 ft 340 kts 90°
2026-05-07 14:16 23.06734 113.02016 12179 ft 337 kts 90°
2026-05-07 14:16 23.06709 113.04544 11759 ft 334 kts 90°
2026-05-07 14:16 23.06804 113.07043 11345 ft 330 kts 78°
2026-05-07 14:17 23.07588 113.09353 10927 ft 325 kts 57°
2026-05-07 14:17 23.09033 113.11191 10609 ft 319 kts 36°
2026-05-07 14:17 23.10982 113.12398 10511 ft 324 kts 17°
2026-05-07 14:17 23.13162 113.12964 10371 ft 324 kts
2026-05-07 14:18 23.15376 113.13431 10228 ft 322 kts
2026-05-07 14:18 23.17529 113.13908 10094 ft 310 kts 14°
2026-05-07 14:18 23.19480 113.14814 9841 ft 304 kts 31°
2026-05-07 14:18 23.21091 113.16272 9776 ft 304 kts 47°
2026-05-07 14:19 23.22344 113.18088 9695 ft 305 kts 54°
2026-05-07 14:19 23.23577 113.20002 9546 ft 305 kts 54°
2026-05-07 14:19 23.24798 113.21889 9434 ft 305 kts 54°
2026-05-07 14:19 23.26002 113.23744 9313 ft 304 kts 54°
2026-05-07 14:20 23.27217 113.25618 9239 ft 304 kts 54°
2026-05-07 14:20 23.28429 113.27493 9119 ft 303 kts 54°
2026-05-07 14:20 23.29636 113.29361 8991 ft 302 kts 54°
2026-05-07 14:20 23.30852 113.31244 8869 ft 302 kts 54°
2026-05-07 14:21 23.31963 113.32965 8748 ft 301 kts 54°
2026-05-07 14:21 23.32072 113.33133 8738 ft 301 kts 54°
2026-05-07 14:21 23.33276 113.34997 8610 ft 301 kts 54°
2026-05-07 14:21 23.34476 113.36854 8489 ft 300 kts 54°
2026-05-07 14:22 23.35674 113.38713 8366 ft 300 kts 54°
2026-05-07 14:22 23.36877 113.40557 8230 ft 299 kts 51°
2026-05-07 14:22 23.38352 113.42123 8115 ft 297 kts 34°
2026-05-07 14:22 23.40151 113.43195 7987 ft 294 kts 18°
2026-05-07 14:23 23.42114 113.43788 7862 ft 292 kts 12°
2026-05-07 14:23 23.44084 113.44314 7738 ft 292 kts 12°
2026-05-07 14:23 23.46051 113.44848 7624 ft 289 kts 12°
2026-05-07 14:23 23.47959 113.45371 7493 ft 276 kts 12°
2026-05-07 14:24 23.49168 113.45703 7428 ft 267 kts 12°
2026-05-07 14:24 23.51509 113.46344 7281 ft 255 kts 12°
2026-05-07 14:24 23.52643 113.46652 7215 ft 254 kts 12°
2026-05-07 14:24 23.54357 113.47119 7111 ft 254 kts 12°
2026-05-07 14:25 23.57825 113.48061 6886 ft 253 kts 12°
2026-05-07 14:25 23.59531 113.48525 6784 ft 253 kts 12°
2026-05-07 14:25 23.61237 113.48988 6673 ft 253 kts 12°